Weather in Agarak

Armenia     38°51′54″N   46°11′46″E
temp.,
°C
wind,
m/s
gust,
m/s
humid.,
%
clouds,
%
prec.,
mm/h
press.,
hPa
HPBL,
m
27 september, mon
mon2701:00+9ese22560 0.0 102011
04:00+7ese11570 0.0 101910
07:00+7se11540 0.0 101810
10:00+16n11285 0.0 1015451
13:00+22nne22181 0.0 1012926
16:00+23ne421817 0.0 10091052
19:00+14ene334111 0.0 101332
22:00+11e33550 0.0 101546
28 september, tue
tue2801:00+9ese33620 0.0 101555
04:00+8ese33670 0.0 101546
07:00+7ese33750 0.0 101640
10:00+13e33631 0.0 1015655
13:00+18ene43464 0.0 1013887
16:00+17ene43520 0.0 1012717
19:00+11ene338367 0.0 1016311
22:00+11e338692 0.1 1018484
29 september, wed
wed2901:00+11e238783 0.1 1018407
04:00+10e239161 0.1 1017275
07:00+10e229268 0.0 1019206
10:00+13ene237143 0.1 1018681
13:00+16ne435811 0.0 1016802
16:00+15ene436634 0.0 1016670
19:00+10e338898 0.1 1017485
22:00+10e348898 0.3 1018506
30 september, thu
thu3001:00+10ene339593 0.1 1018374
04:00+9e239399 0.1 1017400
07:00+10ene228999 0.0 1018382
10:00+11ene228373 0.1 1018449
13:00+14ene436719 0.0 1016570
16:00+12ene438060 0.0 1016509
19:00+9e3491100 0.1 1018419
22:00+9e349499 0.4 1020453
1 october, fri
fri101:00+8ene339199 0.1 1022404
04:00+6ene3393100 0.1 1023515
07:00+6ene2393100 0.0 1025429
10:00+6ene239199 0.0 1025389
13:00+6ene338999 0.0 1025413
16:00+6ene3491100 0.0 1025445
19:00+5e3495100 0.0 1026491
22:00+5e3494100 0.1 1027538